TimeEDT,TemperatureF,Dew PointF,Humidity,Sea Level PressureIn,VisibilityMPH,Wind Direction,Wind SpeedMPH,Gust SpeedMPH,PrecipitationIn,Events,Conditions,WindDirDegrees,DateUTC
12:15 AM,66.2,66.2,100,29.89,4.0,East,3.5,-,N/A,,Drizzle,90,2012-10-01 04:15:00
12:35 AM,66.2,66.2,100,29.89,3.0,Calm,Calm,-,0.03,Rain,Rain,0,2012-10-01 04:35:00
12:55 AM,66.2,66.2,100,29.88,3.0,Calm,Calm,-,0.05,Rain,Heavy Rain,0,2012-10-01 04:55:00
1:15 AM,66.2,66.2,100,29.88,2.5,ENE,4.6,-,0.02,Rain,Rain,70,2012-10-01 05:15:00
1:35 AM,66.2,66.2,100,29.88,3.0,Calm,Calm,-,0.06,Rain,Rain,0,2012-10-01 05:35:00
1:55 AM,66.2,66.2,100,29.87,3.0,ENE,3.5,-,0.11,Rain,Rain,70,2012-10-01 05:55:00
2:15 AM,66.2,66.2,100,29.87,3.0,ENE,3.5,-,0.04,Rain,Heavy Rain,70,2012-10-01 06:15:00
2:35 AM,66.2,66.2,100,29.86,3.0,ENE,4.6,-,0.06,Rain,Heavy Rain,60,2012-10-01 06:35:00
2:55 AM,66.2,66.2,100,29.86,4.0,Calm,Calm,-,0.08,Rain,Rain,0,2012-10-01 06:55:00
3:15 AM,66.2,66.2,100,29.85,5.0,East,4.6,-,0.02,Rain,Light Rain,90,2012-10-01 07:15:00
3:35 AM,66.2,66.2,100,29.84,5.0,NE,5.8,-,0.03,Rain,Light Rain,50,2012-10-01 07:35:00
3:55 AM,66.2,66.2,100,29.84,5.0,ENE,6.9,-,0.04,,Drizzle,60,2012-10-01 07:55:00
4:15 AM,64.4,64.4,100,29.83,5.0,NE,6.9,-,0.01,Rain,Light Rain,40,2012-10-01 08:15:00
4:35 AM,64.4,64.4,100,29.83,7.0,NE,4.6,-,0.02,,Light Drizzle,50,2012-10-01 08:35:00
5:15 AM,64.4,64.4,100,29.84,5.0,ENE,8.1,-,N/A,,Light Drizzle,60,2012-10-01 09:15:00
5:35 AM,64.4,64.4,100,29.84,7.0,NE,9.2,-,N/A,,Overcast,50,2012-10-01 09:35:00
5:55 AM,64.4,64.4,100,29.84,7.0,ENE,10.4,-,N/A,,Overcast,70,2012-10-01 09:55:00
6:15 AM,64.4,64.4,100,29.84,7.0,NE,9.2,-,N/A,,Overcast,50,2012-10-01 10:15:00
6:35 AM,62.6,62.6,100,29.85,5.0,ENE,8.1,-,N/A,Rain,Light Rain,60,2012-10-01 10:35:00
7:15 AM,62.6,62.6,100,29.86,7.0,ENE,9.2,-,N/A,,Overcast,60,2012-10-01 11:15:00
7:35 AM,62.6,62.6,100,29.88,7.0,NNE,5.8,-,N/A,,Overcast,30,2012-10-01 11:35:00
7:55 AM,62.6,62.6,100,29.87,5.0,ENE,5.8,-,N/A,,Overcast,60,2012-10-01 11:55:00
8:15 AM,62.6,62.6,100,29.88,5.0,NNE,5.8,-,N/A,,Overcast,30,2012-10-01 12:15:00
8:35 AM,62.6,62.6,100,29.88,5.0,NE,3.5,-,N/A,,Overcast,50,2012-10-01 12:35:00
8:55 AM,62.6,62.6,100,29.89,5.0,NNE,3.5,-,N/A,,Overcast,30,2012-10-01 12:55:00
9:15 AM,62.6,62.6,100,29.89,5.0,NE,6.9,-,N/A,,Overcast,40,2012-10-01 13:15:00
9:35 AM,64.4,64.4,100,29.89,4.0,NE,8.1,-,N/A,,Overcast,50,2012-10-01 13:35:00
9:55 AM,64.4,62.6,94,29.89,7.0,ENE,9.2,-,N/A,,Overcast,60,2012-10-01 13:55:00
10:15 AM,64.4,62.6,94,29.90,7.0,ENE,11.5,17.3,N/A,,Overcast,60,2012-10-01 14:15:00
10:35 AM,64.4,62.6,94,29.89,7.0,NE,10.4,-,N/A,,Overcast,50,2012-10-01 14:35:00
10:55 AM,64.4,62.6,94,29.89,7.0,ENE,5.8,-,N/A,,Overcast,60,2012-10-01 14:55:00
11:15 AM,64.4,62.6,94,29.88,7.0,ENE,10.4,-,N/A,,Overcast,70,2012-10-01 15:15:00
11:35 AM,66.2,64.4,94,29.88,7.0,ENE,6.9,-,N/A,,Overcast,70,2012-10-01 15:35:00
11:55 AM,68.0,64.4,88,29.88,7.0,ENE,8.1,-,N/A,,Overcast,60,2012-10-01 15:55:00
12:15 PM,68.0,64.4,88,29.87,10.0,ENE,10.4,-,N/A,,Overcast,70,2012-10-01 16:15:00
12:35 PM,69.8,64.4,83,29.87,10.0,ENE,4.6,-,N/A,,Overcast,60,2012-10-01 16:35:00
1:15 PM,69.8,64.4,83,29.87,10.0,ENE,5.8,-,N/A,,Overcast,60,2012-10-01 17:15:00
1:35 PM,69.8,64.4,83,29.86,10.0,East,6.9,-,N/A,,Overcast,80,2012-10-01 17:35:00
1:55 PM,71.6,66.2,83,29.85,10.0,ENE,5.8,-,N/A,,Overcast,60,2012-10-01 17:55:00
2:15 PM,71.6,68.0,88,29.85,10.0,ENE,8.1,-,N/A,,Overcast,70,2012-10-01 18:15:00
2:35 PM,71.6,68.0,88,29.84,10.0,ENE,8.1,-,N/A,,Overcast,70,2012-10-01 18:35:00
2:55 PM,73.4,68.0,83,29.84,10.0,ENE,6.9,-,N/A,,Overcast,60,2012-10-01 18:55:00
3:15 PM,73.4,68.0,83,29.83,10.0,East,8.1,-,N/A,,Overcast,90,2012-10-01 19:15:00
3:55 PM,73.4,68.0,83,29.83,10.0,ENE,6.9,-,N/A,,Overcast,70,2012-10-01 19:55:00
4:15 PM,73.4,68.0,83,29.82,10.0,ENE,6.9,-,N/A,,Overcast,60,2012-10-01 20:15:00
4:35 PM,75.2,69.8,83,29.82,10.0,ENE,6.9,-,N/A,,Overcast,70,2012-10-01 20:35:00
4:55 PM,75.2,69.8,83,29.82,10.0,ENE,8.1,-,N/A,,Overcast,70,2012-10-01 20:55:00
5:15 PM,73.4,69.8,88,29.82,10.0,NE,3.5,-,N/A,,Overcast,50,2012-10-01 21:15:00
5:35 PM,73.4,69.8,88,29.82,7.0,NNE,6.9,-,N/A,,Overcast,30,2012-10-01 21:35:00
5:55 PM,73.4,69.8,88,29.82,7.0,NE,6.9,-,N/A,,Overcast,40,2012-10-01 21:55:00
6:15 PM,73.4,69.8,88,29.82,7.0,NE,5.8,-,N/A,,Overcast,50,2012-10-01 22:15:00
6:35 PM,73.4,69.8,88,29.82,7.0,NE,5.8,-,N/A,,Overcast,50,2012-10-01 22:35:00
6:55 PM,71.6,69.8,94,29.82,7.0,NE,5.8,-,N/A,,Overcast,50,2012-10-01 22:55:00
7:15 PM,71.6,69.8,94,29.81,7.0,NE,5.8,-,0.01,,Overcast,50,2012-10-01 23:15:00
7:35 PM,71.6,69.8,94,29.81,7.0,NE,4.6,-,0.01,,Mostly Cloudy,50,2012-10-01 23:35:00
7:55 PM,71.6,69.8,94,29.81,7.0,ENE,4.6,-,0.01,,Scattered Clouds,60,2012-10-01 23:55:00
8:15 PM,71.6,69.8,94,29.81,7.0,ENE,8.1,-,N/A,,Scattered Clouds,70,2012-10-02 00:15:00
8:35 PM,71.6,71.6,100,29.82,7.0,ENE,8.1,-,N/A,,Mostly Cloudy,70,2012-10-02 00:35:00
8:55 PM,71.6,71.6,100,29.82,7.0,ENE,5.8,-,N/A,,Overcast,70,2012-10-02 00:55:00
9:15 PM,71.6,71.6,100,29.82,7.0,ENE,6.9,-,N/A,,Mostly Cloudy,70,2012-10-02 01:15:00
9:35 PM,71.6,71.6,100,29.82,7.0,East,6.9,-,N/A,,Overcast,80,2012-10-02 01:35:00
9:55 PM,73.4,73.4,100,29.82,7.0,ENE,6.9,-,N/A,,Overcast,70,2012-10-02 01:55:00
10:15 PM,73.4,73.4,100,29.83,7.0,East,8.1,-,N/A,,Overcast,80,2012-10-02 02:15:00
10:35 PM,73.4,73.4,100,29.83,7.0,East,5.8,-,N/A,,Overcast,100,2012-10-02 02:35:00
10:55 PM,73.4,73.4,100,29.83,7.0,East,5.8,-,N/A,,Mostly Cloudy,90,2012-10-02 02:55:00
11:15 PM,73.4,73.4,100,29.83,7.0,East,3.5,-,N/A,,Mostly Cloudy,80,2012-10-02 03:15:00
11:35 PM,75.2,75.2,100,29.83,7.0,ESE,5.8,-,N/A,,Overcast,120,2012-10-02 03:35:00
11:55 PM,75.2,75.2,100,29.83,10.0,ESE,6.9,-,N/A,,Overcast,110,2012-10-02 03:55:00